This demonstration page uses our WeatherBlox Daily Observations layout. Learn more.

Left ArrowRight Arrow

Hourly Observations for April 25, 2019

Temp ( °F °C ) Dew Point ( °F °C ) Humidity (%) Winds ( mph kmh ) Pressure ( in mb ) Visibility ( mi km ) Precip ( " mm )
12:15 am 00:15 Clear 60 15.3 41 5.1 51 51 S 9 15 29.73 1007 10 16 N/A
12:35 am 00:35 Clear 58 14.6 41 4.9 52 52 SSW 9 15 29.74 1007 10 16 N/A
12:55 am 00:55 Clear 58 14.3 40 4.7 53 53 S 7 11 29.74 1007 10 16 N/A
1:15 am 01:15 Clear 57 13.8 40 4.7 54 54 SSW 5 7 29.76 1008 10 16 N/A
1:35 am 01:35 Mostly Cloudy 56 13.4 42 5.7 60 60 W 7 11 29.78 1008 10 16 N/A
1:55 am 01:55 Cloudy 60 15.5 42 5.7 52 52 NW 14 22 29.80 1009 10 16 N/A
2:15 am 02:15 Cloudy 61 15.9 45 7.3 57 57 N 20 31 29.80 1009 10 16 N/A
2:35 am 02:35 Cloudy 58 14.7 46 7.6 63 63 N 16 26 29.81 1009 10 16 N/A
2:55 am 02:55 Cloudy 58 14.5 45 7.4 63 63 NNW 22 35 29.82 1010 10 16 N/A
3:15 am 03:15 Cloudy 57 13.7 47 8.2 70 70 N 17 28 29.83 1010 10 16 N/A
3:35 am 03:35 Cloudy 55 13 47 8.5 74 74 N 20 31 29.84 1011 10 16 N/A
3:55 am 03:55 Cloudy with Drizzle 55 12.8 48 8.8 77 77 NNE 17 28 29.83 1010 10 16 N/A
4:15 am 04:15 Cloudy 55 12.5 48 9 79 79 NNE 18 30 29.83 1010 10 16 N/A
4:35 am 04:35 Cloudy with Drizzle 54 12.4 48 9.1 80 80 N 17 28 29.87 1011 10 16 N/A
4:55 am 04:55 Cloudy with Light Rain 54 12.1 49 9.5 84 84 NNW 15 24 29.90 1013 10 16 N/A
5:15 am 05:15 Cloudy with Light Rain 54 12 49 9.6 85 85 N 15 24 29.91 1013 10 16 N/A
5:35 am 05:35 Cloudy with Rain 53 11.8 50 9.8 88 88 N 17 28 29.90 1013 10 16 0.02 0.51
5:55 am 05:55 Cloudy with Light Rain 53 11.8 50 9.9 88 88 N 16 26 29.91 1013 10 16 0.03 0.76
6:15 am 06:15 Cloudy with Drizzle 53 11.5 49 9.7 89 89 N 14 22 29.92 1013 10 16 0.01 0.25
6:35 am 06:35 Cloudy with Drizzle 52 11.3 49 9.5 89 89 N 12 19 29.93 1014 10 16 0.01 0.25
6:55 am 06:55 Cloudy 53 11.5 49 9.3 86 86 N 10 17 29.93 1013 10 16 0.01 0.25
7:15 am 07:15 Mostly Cloudy 52 11.3 49 9.3 88 88 N 13 20 29.94 1014 10 16 N/A
7:35 am 07:35 Partly Cloudy 52 11.3 49 9.3 88 88 NNW 13 20 29.96 1015 10 16 N/A
7:55 am 07:55 Partly Cloudy 52 11 48 9 88 88 NNW 14 22 29.98 1015 10 16 N/A
8:15 am 08:15 Partly Cloudy 53 11.6 49 9.3 86 86 NNW 15 24 29.98 1015 10 16 N/A
8:35 am 08:35 Cloudy 54 12.2 49 9.6 84 84 NNW 17 28 29.98 1015 10 16 N/A
8:55 am 08:55 Cloudy 54 12.3 49 9.4 83 83 NNW 17 28 29.99 1016 10 16 N/A
9:15 am 09:15 Cloudy 55 12.6 49 9.6 82 82 NNW 16 26 30.00 1016 10 16 N/A
9:35 am 09:35 Cloudy 56 13.1 49 9.7 80 80 NNW 17 28 30.00 1016 10 16 N/A
9:55 am 09:55 Cloudy 57 14.1 50 10.1 77 77 NNW 16 26 29.98 1015 10 16 N/A
10:15 am 10:15 Mostly Cloudy 59 15.2 49 9.7 70 70 N 20 31 29.98 1015 10 16 N/A
10:35 am 10:35 Mostly Cloudy 60 15.4 48 8.8 65 65 NNW 16 26 29.98 1015 10 16 N/A
10:55 am 10:55 Mostly Cloudy 61 16 48 9 63 63 NNW 22 35 29.99 1015 10 16 N/A
11:15 am 11:15 Mostly Cloudy 62 16.5 49 9.2 62 62 N 20 31 29.99 1016 10 16 N/A
11:35 am 11:35 Mostly Cloudy 62 16.8 47 8.4 58 58 N 21 33 29.99 1016 10 16 N/A
11:55 am 11:55 Mostly Cloudy 62 16.8 46 7.5 54 54 N 20 31 30.00 1016 10 16 N/A
12:15 pm 12:15 Mostly Cloudy 63 17.2 46 8 55 55 N 18 30 30.00 1016 10 16 N/A
12:35 pm 12:35 Mostly Cloudy 64 17.7 47 8.3 54 54 N 14 22 29.99 1016 10 16 N/A
12:55 pm 12:55 Mostly Cloudy 65 18.4 45 7.4 49 49 N 18 30 29.99 1015 10 16 N/A
1:15 pm 13:15 Mostly Cloudy 65 18.3 45 7.3 49 49 N 16 26 29.99 1015 10 16 N/A
1:35 pm 13:35 Partly Cloudy 66 18.7 45 7.2 47 47 N 17 28 29.98 1015 10 16 N/A
1:55 pm 13:55 Mostly Cloudy 65 18.5 44 6.4 45 45 N 10 17 29.98 1015 10 16 N/A
2:15 pm 14:15 Mostly Cloudy 67 19.5 42 5.8 41 41 N 17 28 29.98 1015 10 16 N/A
2:35 pm 14:35 Mostly Cloudy 67 19.7 43 5.9 41 41 N 16 26 29.97 1015 10 16 N/A
2:55 pm 14:55 Mostly Cloudy 67 19.7 40 4.4 37 37 N 14 22 29.97 1015 10 16 N/A
3:15 pm 15:15 Partly Cloudy 68 19.9 39 3.9 35 35 N 15 24 29.97 1015 10 16 N/A
3:35 pm 15:35 Partly Cloudy 67 19.6 38 3.5 35 35 N 12 19 29.98 1015 10 16 N/A
3:55 pm 15:55 Partly Cloudy 70 20.9 38 3.2 31 31 NNE 14 22 29.96 1015 10 16 N/A
4:15 pm 16:15 Mostly Cloudy 67 19.7 36 2.4 32 32 N 17 28 29.97 1015 10 16 N/A
4:35 pm 16:35 Mostly Cloudy 68 20.1 35 1.8 30 30 N 18 30 29.96 1015 10 16 N/A
4:55 pm 16:55 Mostly Cloudy 70 21 36 2.2 29 29 N 17 28 29.96 1015 10 16 N/A
5:15 pm 17:15 Mostly Cloudy 69 20.6 36 2 29 29 NNW 17 28 29.97 1015 10 16 N/A
5:35 pm 17:35 Partly Cloudy 69 20.4 35 1.4 28 28 N 18 30 29.97 1015 10 16 N/A
5:55 pm 17:55 Mostly Cloudy 68 20.1 35 1.6 29 29 NNW 20 31 29.98 1015 10 16 N/A
6:15 pm 18:15 Mostly Cloudy 68 20 36 2.1 31 31 N 18 30 29.99 1016 10 16 N/A
6:35 pm 18:35 Partly Cloudy 68 20 34 1.3 29 29 N 18 30 29.99 1016 10 16 N/A
6:55 pm 18:55 Sunny 67 19.3 34 0.9 29 29 N 16 26 30.01 1016 10 16 N/A
7:15 pm 19:15 Sunny 67 19.5 34 1 29 29 N 18 30 30.01 1016 10 16 N/A
7:35 pm 19:35 Partly Cloudy 66 19 33 0.7 29 29 N 16 26 30.02 1017 10 16 N/A
7:55 pm 19:55 Partly Cloudy 65 18.1 34 1.1 32 32 N 15 24 30.03 1017 10 16 N/A
8:15 pm 20:15 Sunny 62 16.9 34 1 34 34 N 12 19 30.04 1017 10 16 N/A
8:35 pm 20:35 Clear 59 15.1 35 1.8 41 41 N 8 13 30.06 1018 10 16 N/A
8:55 pm 20:55 Clear 55 12.9 35 1.8 47 47 N 8 13 30.09 1019 10 16 N/A
9:15 pm 21:15 Clear 55 13 35 1.8 47 47 N 9 15 30.10 1019 10 16 N/A
9:35 pm 21:35 Clear 53 11.5 36 2 52 52 N 10 17 30.13 1020 10 16 N/A
9:55 pm 21:55 Clear 55 13 36 2 47 47 NNE 10 17 30.13 1020 10 16 N/A
10:15 pm 22:15 Clear 53 11.5 36 2 52 52 N 9 15 30.16 1021 10 16 N/A
10:35 pm 22:35 Clear 51 10.7 36 2 55 55 NNE 6 9 30.16 1021 10 16 N/A
10:55 pm 22:55 Clear 49 9.7 35 1.9 59 59 NNE 5 7 30.17 1022 10 16 N/A
11:15 pm 23:15 Clear 48 9 34 1.3 59 59 N 5 7 30.18 1022 10 16 N/A
11:35 pm 23:35 Clear 46 8 34 1.3 63 63 N N/A 30.20 1023 10 16 N/A
11:55 pm 23:55 Clear 45 7.4 34 1.3 66 66 N N/A 30.20 1023 10 16 N/A

Powered by AerisWeather